TimeEDT,TemperatureF,Dew PointF,Humidity,Sea Level PressureIn,VisibilityMPH,Wind Direction,Wind SpeedMPH,Gust SpeedMPH,PrecipitationIn,Events,Conditions,WindDirDegrees,DateUTC
12:52 AM,70.0,64.0,81,30.04,10.0,West,4.6,-,N/A,,Clear,260,2013-08-20 04:52:00
1:52 AM,68.0,63.0,84,30.04,10.0,West,4.6,-,N/A,,Clear,270,2013-08-20 05:52:00
2:52 AM,66.0,62.1,87,30.04,10.0,Calm,Calm,-,N/A,,Clear,0,2013-08-20 06:52:00
3:52 AM,66.9,63.0,87,30.04,10.0,Calm,Calm,-,N/A,,Clear,0,2013-08-20 07:52:00
4:52 AM,64.9,62.1,90,30.05,10.0,Calm,Calm,-,N/A,,Clear,0,2013-08-20 08:52:00
5:52 AM,66.0,62.1,87,30.06,10.0,Calm,Calm,-,N/A,,Clear,0,2013-08-20 09:52:00
6:52 AM,66.9,63.0,87,30.08,10.0,NNW,3.5,-,N/A,,Clear,340,2013-08-20 10:52:00
7:52 AM,70.0,63.0,78,30.10,10.0,Calm,Calm,-,N/A,,Clear,0,2013-08-20 11:52:00
8:52 AM,73.9,62.1,66,30.11,10.0,West,4.6,-,N/A,,Clear,280,2013-08-20 12:52:00
9:52 AM,73.9,64.0,71,30.12,10.0,SSW,6.9,-,N/A,,Clear,200,2013-08-20 13:52:00
10:52 AM,75.9,64.0,67,30.12,10.0,SW,8.1,-,N/A,,Clear,220,2013-08-20 14:52:00
11:52 AM,77.0,66.0,69,30.12,10.0,SW,10.4,-,N/A,,Clear,220,2013-08-20 15:52:00
12:52 PM,80.1,64.9,60,30.11,10.0,SSW,10.4,-,N/A,,Clear,210,2013-08-20 16:52:00
1:52 PM,82.0,64.0,54,30.09,10.0,SW,12.7,-,N/A,,Clear,220,2013-08-20 17:52:00
2:52 PM,82.9,61.0,47,30.08,10.0,SSW,11.5,-,N/A,,Clear,210,2013-08-20 18:52:00
3:52 PM,84.0,60.1,44,30.07,10.0,SSW,11.5,-,N/A,,Clear,210,2013-08-20 19:52:00
4:52 PM,84.9,59.0,41,30.07,10.0,SW,10.4,-,N/A,,Clear,220,2013-08-20 20:52:00
5:52 PM,84.9,57.0,38,30.08,10.0,NNW,11.5,-,N/A,,Clear,330,2013-08-20 21:52:00
6:52 PM,84.0,57.9,41,30.08,10.0,NW,4.6,-,N/A,,Clear,320,2013-08-20 22:52:00
7:52 PM,80.1,62.1,54,30.09,10.0,Calm,Calm,-,N/A,,Clear,0,2013-08-20 23:52:00
8:52 PM,77.0,64.0,64,30.10,10.0,South,5.8,-,N/A,,Clear,180,2013-08-21 00:52:00
9:52 PM,75.0,68.0,79,30.12,10.0,Calm,Calm,-,N/A,,Clear,0,2013-08-21 01:52:00
10:52 PM,73.0,68.0,84,30.12,10.0,Calm,Calm,-,N/A,,Clear,0,2013-08-21 02:52:00
11:52 PM,73.0,69.1,87,30.13,10.0,Calm,Calm,-,N/A,,Clear,0,2013-08-21 03:52:00